CAPE
0 0 0 0 4 8 2 2 4 1 1 1 0 0 0 0 0 0 0 0 0 0 0 0 0 0 0 0 0 0 0 0 0 0 0 1 90 10
0 0 0 2 1 1 6 1 2 2 1 3 0 1 0 0 0 0 0 0 0 0 0 0 0 0 0 0 0 0 0 0 0 0 0 0 28 13
0 0 0 0 2 1 0 1 2 1 1 0 0 0 0 0 0 0 0 0 0 0 0 0 0 0 0 0 0 0 0 0 0 0 0 0 2 68
0 0 0 0 0 0 1 1 0 2 2 3 0 0 0 0 0 0 0 0 0 0 0 0 0 0 0 0 0 0 0 0 0 0 0 0 0 39
0 0 0 2 0 0 0 2 4 2 3 3 0 1 1 0 1 0 0 0 0 0 0 0 0 0 0 0 0 0 0 0 0 0 0 0 0 1
0 1 0 0 2 0 0 1 0 2 3 1 6 2 0 0 1 1 0 0 0 0 0 0 0 0 0 0 0 0 0 0 0 0 0 0 0 0
0 0 0 0 6 7 0 0 0 1 13 3 1 1 1 6 3 5 0 0 0 0 0 0 0 0 0 0 0 0 0 0 0 0 0 0 0 0
0 0 0 1 8 8 15 5 1 1 1 7 1 0 0 2 23 2 0 0 0 0 0 0 0 0 0 0 0 0 0 0 0 0 0 0 0 0
0 0 0 3 2 6 1 0 0 1 0 1 0 0 0 6 1 0 0 0 0 0 0 0 0 0 0 0 0 0 0 0 0 0 0 0 0 0
0 0 0 0 0 1 0 0 1 0 1 0 0 0 2 1 10 0 0 0 0 0 0 0 0 0 0 0 0 0 0 0 0 0 0 0 0 0
1 0 0 1 0 0 0 0 0 0 1 1 1 1 0 5 0 0 0 0 0 0 0 5 4 7 0 0 0 0 0 0 0 0 0 0 0 0
0 0 0 0 0 0 0 0 0 0 0 1 0 0 0 0 0 1 0 0 0 2 0 16 22 22 12 3 0 0 2 0 0 0 0 0 0 0
0 0 0 0 0 0 0 0 0 0 2 0 0 0 0 4 2 0 0 0 0 0 0 0 14 5 7 4 0 0 0 0 0 0 0 0 0 0
1 0 0 1 0 0 0 0 0 0 0 0 0 0 0 1 4 1 0 0 0 0 0 2 2 2 0 0 10 0 0 0 0 0 0 0 0 0
0 0 0 1 0 0 0 0 0 0 0 0 0 0 0 0 0 0 0 0 0 0 0 0 6 0 0 1 0 0 0 0 0 0 0 0 0 0
0 1 1 0 0 0 0 0 0 0 0 0 0 0 0 0 0 0 0 0 0 0 0 0 0 0 0 0 0 0 0 0 0 0 0 0 0 0
1 0 0 1 1 0 0 0 0 0 0 0 0 0 0 0 0 0 0 0 0 0 0 0 0 0 0 0 0 0 0 0 0 0 0 0 0 0
0 0 0 0 0 0 0 0 2 0 0 0 0 0 0 0 0 0 0 0 0 0 0 0 0 0 0 0 0 0 0 0 0 1 0 0 0 0
0 0 0 0 0 0 0 0 0 0 2 0 0 0 0 0 0 0 0 0 0 0 0 1 0 0 0 0 0 0 0 0 0 0 0 0 0 0
1 2 1 0 0 0 0 0 0 0 0 0 0 0 0 0 0 0 0 0 0 0 0 0 0 0 0 0 1 0 0 0 0 0 0 0 0 0
1 1 2 1 1 1 1 0 0 0 0 0 0 1 3 1 2 1 0 0 0 0 0 0 0 0 0 0 0 0 0 4 3 1 1 1 1 0
0 1 1 2 2 2 2 2 0 0 0 0 0 0 0 0 0 0 0 0 0 0 0 0 0 0 0 0 0 0 0 0 2 0 0 0 0 0
1 0 0 0 1 2 2 2 2 2 1 0 0 0 0 0 0 0 0 0 0 0 0 0 0 0 0 0 0 0 1 0 0 0 1 0 0 1
CIN
-0 -0 -0 -0 -1 -2 -3 -1 -0 -0 -0 -0 -0 -0 -0 -0 -0 -0 -0 -0 -0 -0 -0 -0 -0 -0 -0 -0 -0 -0 -0 -0 -0 -0 -0 -8 -1 -75
-0 -0 -0 -0 -0 -0 -0 -0 -0 -0 -0 -1 -9 -12 -0 -0 -0 -0 -0 -0 -0 -0 -0 -0 -0 -0 -0 -0 -0 -0 -0 -0 -0 -0 -0 -0 -28 -38
-0 -0 -0 -0 -1 -0 -5 -0 -0 -0 -0 -0 -0 -0 -0 -0 -0 -0 -0 -0 -0 -0 -0 -0 -0 -0 -0 -0 -0 -0 -0 -0 -0 -0 -0 -0 -1 -7
-0 -1 -0 -0 -0 -0 -0 -0 -0 -0 -0 -0 -0 -0 -0 -0 -0 -0 -0 -0 -0 -0 -0 -0 -0 -0 -0 -0 -0 -0 -0 -0 -0 -0 -0 -0 -0 -2
-0 -0 -0 -1 -0 -0 -0 -1 -0 -2 -0 -0 -0 -0 -2 -0 -0 -0 -0 -0 -0 -0 -0 -0 -0 -0 -0 -0 -0 -0 -0 -0 -0 -0 -0 -0 -0 -14
-0 -0 -0 -1 -2 -0 -0 -0 -0 -0 -0 -0 -0 -0 -0 -0 -0 -0 -0 -0 -0 -0 -0 -0 -0 -0 -0 -0 -0 -0 -0 -0 -0 -0 -0 -0 -0 -0
-0 -3 -2 -2 -0 -0 -0 -0 -0 -0 -0 -0 -0 -0 -0 -0 -0 -1 -0 -0 -0 -0 -0 -0 -0 -0 -0 -0 -0 -0 -0 -0 -0 -0 -0 -0 -0 -0
-5 -0 -0 -0 -1 -0 -0 -1 -1 -0 -0 -0 -0 -0 -0 -0 -1 -0 -1 -0 -0 -0 -0 -0 -0 -0 -0 -0 -0 -0 -0 -0 -0 -0 -0 -0 -0 -0
-0 -0 -0 -0 -0 -1 -0 -0 -0 -0 -0 -0 -0 -0 -0 -0 -0 -3 -0 -0 -0 -0 -0 -0 -0 -0 -0 -0 -0 -0 -0 -0 -0 -0 -0 -0 -0 -0
-0 -0 -0 -0 -0 -0 -0 -0 -0 -0 -0 -0 -0 -0 -0 -1 -0 -0 -0 -0 -0 -0 -0 -0 -0 -7 -0 -0 -0 -0 -0 -0 -0 -0 -0 -0 -0 -0
-0 -0 -0 -0 -0 -0 -0 -0 -0 -0 -0 -0 -0 -0 -0 -11 -0 -0 -0 -0 -0 -0 -0 -22 -39 -43 -38 -0 -0 -0 -0 -0 -0 -0 -0 -0 -0 -0
-0 -0 -0 -1 -0 -0 -0 -0 -0 -0 -0 -0 -0 -0 -0 -0 -0 -31 -0 -0 -0 -3 -3 -22 -42 -43 -17 -97 -49 -0 -93 -0 -0 -0 -0 -0 -0 -0
-0 -0 -0 -1 -0 -0 -0 -0 -0 -0 -0 -4 -0 -0 -7 -41 -57 -40 -9 -0 -0 -18 -0 -1 -40 -43 -35 -52 -0 -0 -0 -0 -0 -0 -0 -0 -0 -0
-0 -0 -0 -0 -0 -0 -0 -0 -0 -0 -0 -0 -0 -0 -6 -12 -46 -51 -0 -0 -0 -0 -0 -42 -39 -22 -1 -0 -28 -0 -0 -0 -0 -0 -0 -0 -0 -0
-0 -4 -5 -2 -0 -0 -0 -0 -0 -0 -0 -0 -0 -0 -0 -0 -0 -0 -0 -0 -0 -0 -0 -0 -26 -0 -0 -4 -2 -0 -0 -0 -0 -0 -0 -0 -0 -0
-0 -0 -0 -0 -1 -0 -0 -0 -0 -0 -0 -0 -0 -0 -0 -0 -0 -0 -0 -0 -0 -0 -0 -0 -0 -0 -0 -0 -0 -0 -0 -0 -0 -0 -0 -0 -0 -0
-0 -0 -0 -0 -0 -0 -0 -0 -0 -0 -0 -0 -0 -0 -0 -0 -0 -0 -0 -0 -0 -0 -0 -0 -0 -0 -0 -0 -0 -0 -0 -0 -0 -0 -0 -0 -0 -0
-0 -0 -0 -0 -0 -0 -0 -0 -11 -3 -0 -0 -0 -0 -0 -0 -0 -0 -0 -0 -0 -0 -0 -0 -0 -0 -0 -0 -0 -0 -0 -0 -0 -0 -0 -0 -0 -0
-0 -0 -0 -0 -0 -0 -1 -0 -0 -0 -13 -14 -0 -0 -0 -0 -0 -0 -0 -0 -0 -0 -0 -0 -0 -0 -0 -0 -0 -0 -0 -0 -0 -0 -0 -0 -0 -0
-0 -0 -0 -0 -0 -0 -0 -0 -0 -0 -0 -0 -0 -0 -0 -0 -0 -0 -0 -0 -0 -0 -0 -0 -0 -0 -0 -0 -0 -0 -0 -0 -0 -0 -0 -0 -0 -0
-0 -0 -0 -0 -0 -0 -0 -0 -0 -0 -0 -0 -24 -13 -23 -25 -25 -28 -0 -12 -0 -0 -0 -0 -0 -0 -0 -0 -0 -0 -0 -0 -0 -0 -0 -0 -0 -0
-0 -0 -0 -0 -0 -0 -0 -0 -0 -0 -0 -0 -0 -0 -2 -4 -0 -0 -0 -0 -0 -0 -0 -0 -0 -0 -0 -0 -0 -0 -0 -0 -0 -0 -0 -0 -0 -0
-0 -0 -0 -0 -0 -0 -0 -0 -0 -0 -0 -0 -0 -0 -0 -0 -19 -0 -0 -0 -0 -0 -0 -0 -0 -0 -0 -0 -0 -0 -0 -0 -0 -0 -0 -0 -0 -0
Wind_Speed
32 33 35 37 37 37 41 41 44 46 43 39 41 39 40 40 39 37 37 37 34 35 35 35 34 33 33 33 32 34 35 34 35 37 36 33 27 21
32 34 34 34 35 36 36 38 36 42 48 37 38 37 37 39 40 39 38 36 31 31 31 32 34 34 34 34 33 33 34 34 33 34 35 32 34 21
31 32 33 33 34 34 35 36 38 37 43 43 42 39 40 39 39 39 36 33 31 28 28 30 32 34 35 34 34 34 33 34 33 32 33 34 35 29
31 31 31 30 32 33 33 36 37 37 40 46 43 42 41 41 40 39 37 35 33 29 28 29 30 33 35 35 34 33 33 34 34 33 31 33 37 35
30 29 30 30 31 32 33 35 36 36 38 42 43 42 41 38 39 39 38 35 32 31 29 28 30 33 35 35 34 35 34 34 34 34 34 33 35 35
27 27 28 28 29 30 32 34 34 36 37 41 42 41 41 40 38 40 39 35 31 29 29 29 31 33 35 36 36 36 36 36 35 34 33 33 32 34
24 25 22 23 24 26 29 31 33 34 36 38 41 40 42 40 41 38 38 32 30 28 28 29 30 32 34 35 35 36 37 37 36 36 34 34 33 33
22 23 21 19 20 23 25 29 32 34 33 38 40 42 43 40 39 45 38 32 33 29 27 31 28 31 32 32 33 34 35 36 36 36 35 35 34 32
15 16 21 16 11 19 26 34 38 37 38 37 40 44 46 45 38 41 32 30 29 26 27 32 27 30 29 30 32 33 34 34 34 34 35 35 35 34
10 8 12 13 13 19 28 31 32 33 35 36 38 40 42 43 42 31 25 24 24 24 24 31 26 28 28 28 28 30 32 33 34 34 34 35 34 34
10 9 8 8 18 22 24 26 26 27 28 32 35 36 27 32 28 23 24 23 24 25 25 26 25 25 26 27 27 27 27 28 30 30 31 32 32 33
6 8 12 18 17 19 21 21 19 19 19 19 21 17 15 15 18 19 18 20 22 24 23 25 24 23 28 26 26 26 26 26 26 26 28 29 30 32
11 15 15 18 18 18 19 19 16 13 13 14 14 15 12 11 13 14 15 18 21 21 20 20 22 21 24 23 25 26 26 27 27 27 28 29 30 31
18 17 17 17 15 17 18 16 13 12 11 11 13 9 11 15 12 12 11 12 15 17 17 19 19 19 23 26 25 22 25 27 28 30 31 32 33 34
19 19 18 18 18 16 19 18 16 11 9 8 7 10 13 11 12 11 10 11 13 14 16 16 18 20 22 22 22 23 25 25 26 28 28 30 33 33
23 18 16 14 15 16 17 16 15 13 11 10 10 14 16 15 15 16 16 17 20 20 18 18 19 20 22 24 26 27 26 26 24 26 29 30 30 33
21 21 18 15 11 13 15 16 16 16 15 16 15 16 18 16 17 16 17 20 23 24 24 22 21 22 25 27 29 30 31 32 31 31 29 32 33 34
23 21 19 18 14 14 16 18 19 20 20 19 20 20 18 20 19 18 20 22 23 24 25 25 25 26 27 29 29 33 33 34 32 30 27 31 37 35
21 15 14 12 11 9 12 14 16 18 20 20 20 20 20 20 19 21 23 23 24 25 27 27 28 28 30 33 30 28 30 29 29 30 25 29 35 36
16 13 9 5 5 7 10 12 15 18 20 22 23 23 23 23 23 26 27 26 27 28 29 29 29 30 31 31 28 26 21 26 28 32 31 30 33 33
10 8 7 4 9 13 15 16 17 19 20 22 23 22 22 21 25 27 27 28 29 30 32 31 30 29 28 26 26 27 23 22 25 28 28 30 33 33
15 12 6 3 6 12 18 21 22 23 23 24 24 25 26 28 29 29 29 30 31 31 32 31 31 29 27 25 29 26 26 24 22 22 24 28 28 31
21 18 14 9 5 6 13 19 23 24 25 25 26 27 28 29 30 30 29 29 30 31 31 33 32 30 30 28 26 26 26 23 22 25 27 27 29 30
Wind_Direction
304 300 294 289 287 283 280 273 271 270 271 268 265 266 265 266 264 263 262 259 259 259 262 261 260 261 263 266 266 262 260 260 259 259 260 262 256 245
303 301 297 293 288 285 280 275 274 268 266 271 267 267 266 264 262 260 260 255 253 258 262 260 257 257 261 263 264 262 259 258 261 260 260 262 255 240
308 302 298 295 291 287 281 278 273 269 266 266 265 267 265 264 261 259 254 247 250 255 260 260 258 257 259 262 262 261 261 258 259 260 261 262 258 250
312 307 301 296 291 288 284 277 273 271 268 264 263 262 263 261 258 255 249 245 247 251 258 261 259 258 258 260 261 260 260 258 258 258 261 261 256 249
315 309 304 299 291 288 283 278 274 271 267 264 262 259 259 260 255 250 246 241 244 248 255 259 261 261 258 257 258 257 257 256 256 258 259 261 259 248
322 315 308 302 294 288 283 279 274 269 266 261 260 257 256 255 254 244 239 236 238 246 253 258 262 260 256 254 254 253 253 254 255 256 257 258 260 250
328 322 315 307 298 288 284 278 272 267 263 260 256 253 250 249 246 239 233 230 237 245 250 257 262 260 254 251 253 251 250 251 252 252 254 256 256 256
338 331 325 314 304 293 283 275 269 263 261 256 250 245 243 243 242 226 225 225 233 243 249 257 262 258 254 252 253 252 251 251 251 251 253 254 255 258
352 348 338 334 325 301 283 260 251 250 250 249 245 241 236 231 232 219 218 223 234 243 250 253 261 259 254 255 254 252 252 252 252 253 254 255 254 255
6 20 8 357 341 299 250 232 225 225 231 232 233 229 220 217 215 212 211 226 240 247 251 251 260 258 255 255 256 253 253 254 253 255 255 255 255 255
31 46 65 144 215 223 212 206 209 218 226 220 218 214 208 204 209 205 218 226 239 247 252 255 257 258 255 256 255 256 255 257 257 259 259 258 258 256
76 109 164 184 207 203 202 201 208 218 216 204 195 197 208 205 209 217 223 232 242 246 253 251 255 257 254 259 256 256 257 261 264 263 262 262 260 257
103 115 143 188 207 207 209 200 207 226 208 194 190 197 206 211 219 229 239 241 242 250 252 255 254 257 257 260 257 255 257 261 263 265 264 263 261 258
94 113 142 170 214 217 211 210 218 212 200 194 199 207 216 218 231 236 248 253 253 249 258 253 258 261 263 255 255 261 259 262 264 264 265 264 261 258
96 112 137 160 176 214 210 216 219 226 222 217 218 224 231 234 238 244 254 261 253 257 266 265 263 262 261 261 261 261 264 269 270 269 271 268 260 257
88 115 140 168 196 213 213 221 226 233 239 248 250 241 238 235 239 246 250 251 250 254 267 268 269 266 264 264 265 266 270 275 279 277 274 271 266 259
92 101 120 153 192 216 233 239 241 241 245 243 243 241 236 243 248 257 258 256 252 252 257 266 269 269 268 268 268 270 272 273 276 278 278 272 266 262
89 95 108 123 159 189 209 215 229 230 231 240 237 242 248 248 255 265 260 255 259 260 259 262 264 265 267 266 270 271 273 274 278 281 279 274 266 265
86 99 107 123 162 195 209 217 224 224 228 236 245 252 255 259 267 262 255 260 266 263 255 257 256 260 262 263 277 280 280 280 281 281 281 274 266 264
89 102 121 164 210 254 258 248 244 243 247 247 250 257 265 269 269 256 257 263 263 257 255 257 254 254 259 273 286 291 292 285 282 277 274 274 268 264
84 98 114 205 263 272 277 279 276 273 271 274 276 280 283 281 265 260 265 266 258 257 254 253 257 266 277 288 291 294 295 296 289 280 276 271 263 260
72 77 91 178 233 258 281 292 291 290 289 288 285 281 273 262 257 261 266 262 260 254 255 260 265 274 282 292 287 294 296 300 293 293 283 274 266 260
59 62 66 76 92 242 257 270 281 279 279 276 273 266 264 263 265 266 262 259 258 258 263 266 271 277 279 287 291 293 298 298 293 286 280 280 268 264